Meteo Giornale » Osservazioni meteo Italia » Milano-Linate

ore: 18:50 - Osservazioni Meteo Milano-Linate
Lat. 45° 26' N Lon. 9° 17' E Alt. 107 metri s.l.m.

coperto_pioggia Europe/Rome

8 °C

Pioggia Debole

Temp. 24 Ore

5 °C

11 °C

Nord

5.5 Km/h

Dew point 4 °C

Umidità 75 %

Visibilità  7 Km

Il sole sorge alle ore 07:01

Il sole tramonta alle ore 18:09

Data e Ora Cielo e Fenomeni T °C DP °C Um. % Pres. hPa Vis. km Vento km/h
Oggi h: 18:50 coperto_pioggia Pioggia Debole 8 4 75 1014 7 N 5.5
Oggi h: 18:20 coperto_pioggia Pioggia Debole 9 3 66 1014 10 S/SE 9.3
Oggi h: 17:50 molto_nuvoloso Molto Nuvoloso 9 3 66 1014 10 S/SE 11.1
Oggi h: 17:20 molto_nuvoloso Molto Nuvoloso 10 1 53 1014 10 S/SE 9.3
Oggi h: 16:50 molto_nuvoloso Molto Nuvoloso 10 2 57 1014 10 S/SE 9.3
Oggi h: 16:20 molto_nuvoloso Molto Nuvoloso 10 2 57 1014 10 SE 7.4
Oggi h: 15:50 molto_nuvoloso Molto Nuvoloso 10 2 57 1014 10 S/SE 7.4
Oggi h: 15:20 molto_nuvoloso Molto Nuvoloso 10 2 57 1015 10 S/SE 7.4
Oggi h: 14:50 molto_nuvoloso Molto Nuvoloso 10 1 53 1015 10 S/SE 9.3
Oggi h: 14:20 molto_nuvoloso Molto Nuvoloso 10 1 53 1015 10 S/SE 9.3
Oggi h: 13:50 molto_nuvoloso Molto Nuvoloso 10 1 53 1016 10 S/SE 11.1
Oggi h: 13:20 nuvoloso Nuvoloso 10 1 53 1016 10 S 11.1
Oggi h: 12:50 nuvoloso Nuvoloso 11 2 53 1017 10 S 11.1
Oggi h: 12:20 nuvoloso Nuvoloso 11 2 53 1017 10 S/SE 9.3
Oggi h: 11:50 sereno Sereno 11 2 53 1017 10 S/SE 9.3
Oggi h: 11:20 sereno Sereno 11 2 53 1018 10 E/SE 9.3
Oggi h: 10:50 sereno Sereno 10 1 53 1018 10 E/SE 9.3
Oggi h: 10:20 sereno Sereno 10 1 53 1018 10 E 9.3
Oggi h: 09:50 sereno Sereno 9 1 57 1018 10 E 9.3
Oggi h: 09:20 sereno Sereno 8 1 61 1018 10 N 5.5
Oggi h: 08:50 sereno Sereno 7 1 65 1018 10 NE 7.4
Oggi h: 08:20 sereno Sereno 6 1 70 1018 8 N/NE 7.4
Oggi h: 07:50 sereno Sereno 5 0 70 1018 7 NE 9.3
Oggi h: 07:20 sereno Sereno 6 0 65 1018 7 NE 7.4
Oggi h: 06:50 sereno Sereno 5 0 70 1018 10 NE 7.4
Oggi h: 06:20 sereno Sereno 5 0 70 1018 10 N 5.5
Oggi h: 05:20 sereno Sereno 5 1 75 1018 10 E/NE 9.3
Oggi h: 04:50 sereno Sereno 6 1 70 1018 10 E 7.4
Oggi h: 04:20 sereno Sereno 5 1 75 1018 10 E 7.4
Oggi h: 03:50 sereno Sereno 6 1 70 1018 10 N 5.5
Oggi h: 03:20 sereno Sereno 6 1 70 1018 10 N 5.5
Oggi h: 02:50 sereno Sereno 6 1 70 1018 10 N 5.5
Oggi h: 02:20 sereno Sereno 7 1 65 1018 10 N 3.7
Oggi h: 01:50 sereno Sereno 7 1 65 1018 10 E 7.4
Oggi h: 01:20 sereno Sereno 7 1 65 1018 10 E/NE 9.3
Oggi h: 00:50 sereno Sereno 7 1 65 1018 10 NE 7.4
Oggi h: 00:20 sereno Sereno 7 1 65 1018 10 E/NE 7.4
Ieri h: 23:50 sereno Sereno 8 1 61 1018 10 N 5.5
Ieri h: 22:50 sereno Sereno 7 2 70 1018 10 N 5.5
Ieri h: 22:20 sereno Sereno 7 1 65 1018 10 N 9.3
Ieri h: 21:50 sereno Sereno 7 1 65 1018 10 N 3.7
Ieri h: 21:20 sereno Sereno 8 1 61 1018 10 N 3.7
Ieri h: 20:50 sereno Sereno 8 1 61 1018 10 N 3.7
Ieri h: 20:20 sereno Sereno 8 1 61 1018 10 N 3.7
Ieri h: 19:50 sereno Sereno 9 1 57 1018 10 N 1.8
Ieri h: 19:20 sereno Sereno 9 1 57 1018 10 N 1.8